Flag for Mexico Weather past 2 weeks in Mexicali, Baja California, Mexico

Now
86 °F

Clear.


Feels Like: 83 °F
Forecast: 80 / 112 °F
Wind: 5 mph from Northwest

Location: Imperial County Airport

Current Time: Jul 23, 2014 at 3:37:33 AM

Latest Report: Jul 23, 2014 at 2:53 AM


Visibility: 10 mi

Pressure: 29.80 "Hg

Humidity: 20%

Dew point: 41 °F

Location of MexicaliLocation

Historic Weather in Mexicali — Graph

°F

Mexicali temperature yesterday

Maximum temperature yesterday: 111 °F (at 4:53 PM)
Minimum temperature yesterday: 73 °F (at 5:53 AM)
Average temperature yesterday: 91 °F

Past Weeks' High & Low Weather Summary

 TemperatureHumidityPressure
High111 °F (Jul 13, 2:53 PM)77% (Jul 15, 5:53 AM)29.93 "Hg (Jul 15, 5:53 AM)
Low73 °F (Jul 22, 5:53 AM)6% (Jul 17, 2:53 PM)29.68 "Hg (Jul 10, 4:53 PM)
Average92 °F32%29.80 "Hg
* Reported Jul 8 1:53 AM — Jul 23 1:53 AM, Mexicali, Weather by CustomWeather, © 2014

Note: Actual official high and low records may vary slightly from our data, if they occured in-between our weather recording intervals... More about our weather records

Advertising

Mexicali weather history for previous 24 hours

 ConditionsComfort  
Time TempWeatherWind HumidityBarometerVisibility
1:53 AM
Jul 23
83 °FClear.6 mph26%29.81 "Hg10 mi
12:53 AM88 °FClear.10 mph22%29.80 "Hg10 mi
10:53 PM
Jul 22
89 °FClear.8 mph25%29.81 "Hg10 mi
9:53 PM94 °FClear.14 mph21%29.80 "Hg10 mi
8:53 PM95 °FClear.8 mph18%29.79 "Hg10 mi
7:53 PM103 °FSunny.3 mph11%29.77 "Hg10 mi
6:53 PM109 °FSunny.No wind7%29.76 "Hg10 mi
5:53 PM109 °FPassing clouds.3 mph7%29.76 "Hg10 mi
4:53 PM111 °FPassing clouds.5 mph8%29.78 "Hg10 mi
9:53 AM95 °FSunny.12 mph23%29.90 "Hg10 mi
8:53 AM93 °FHot.10 mph24%29.90 "Hg10 mi
7:53 AM87 °FSunny.5 mph28%29.89 "Hg10 mi
6:53 AM79 °FPleasantly warm.No wind32%29.87 "Hg10 mi
5:53 AM73 °FMild.5 mph40%29.85 "Hg10 mi
4:53 AM75 °FMild.3 mph37%29.84 "Hg10 mi
3:53 AM78 °FClear.5 mph31%29.84 "Hg10 mi
Weather by CustomWeather, © 2014

See weather overviewHow to use our weather pages